一网星座-0605星 (ONEWEB-0605 )

导读 | 星芒AI

ONEWE-0605 是 OneWeb 卫星通信星座计划中的一颗低轨道通信卫星,旨在为全球提供高速互联网服务。该卫星由空中客车防务与航天公司制造,搭载先进通信载荷,支持宽带数据传输。作为 OneWeb 计划部署的数百颗卫星之一,它运行在约 1200 公里的近地轨道,助力实现偏远和农村地区的网络覆盖。该星座由多家国际合作伙伴共同支持,致力于缩小全球数字鸿沟。

基本信息
目录编号:
54669
目录名称:
ONEWEB-0605
国际标识:
2022-166AD
轨道中心:
EARTH
卫星名称:
一网星座-0605星
卫星全名:
一网星座-0605星 (ONEWEB-0605 )
卫星状态:
在轨 (已飞行1057 天)
发射日期:
2022-12-08 UTC
国别 :
英国 (GB)
星等 :
--
轨道信息
数据来源 国际轨道数据
星历时间: 2025-10-30T06:40:52+0800
6小时前
查看轨道信息
半长轴: 7555.89km
偏心率: 0.0001521
轨道倾角: 87.917°
近地点辐角 69.490°
升交点赤经 289.928°
平近点角 290.639°
近地点: 1176.605km
远地点: 1178.905km
周期: 108.940分钟
每日圈数: 13.218261
详细信息
平衡模式:
三轴稳定
覆盖范围:
全球
运营商:
一网卫星公司
运营商所在国:
英国
制造商(研发单位):
一网卫星公司
制造商所在国:
英国
使用方式:
暂无
卫星简介
OneWeb卫星网络由648颗重约125公斤的微型卫星组成,运行在1200公里的轨道上。 每颗卫星都能够提供至少每秒8千兆位的吞吐量,以使用其高吞吐量的Ku频段有效载荷为家庭和移动平台提供互联网接入。该卫星仍在工作。
2D轨道图
3D轨道图
轨道高度分析图
轨道倾角分析图
轨道综合分析图
查看轨道综合分析图